[[{"header":{"parameterUnit":"m.s-1","parameterCategory":1,"la1":30.2991,"la2":30.254,"lo1":-89.0895,"lo2":-89.0444,"dy":0.0017,"dx":0.0017,"nx":28,"ny":28,"refTime":"2025-08-08T09:00:00:Z","depth":0,"parameterNumber":2,"parameterNumberName":"U-component_of_WINDS"},"data":[0,0,0,0,0,0,0,0,0,0,0,0,0,0,0,0,0,0,0,0,0,0,0,0,0,0,0,0,0,0,0,0,0,0,0,0,0,0,0,0,0,0,0,0,0,0,0,0,0,0,0,0,0,0,0,0,0,0,-4.8659,-4.8659,0,-4.8663,-4.8663,-4.8663,-4.857,-4.8567,-4.8565,-4.8563,-4.8565,-4.8568,-4.857,0,0,0,0,0,0,0,0,0,0,0,0,0,-4.857,-4.8572,-4.8658,-4.8659,-4.8659,-4.8663,-4.8663,-4.8663,-4.857,-4.8567,-4.8564,-4.8561,-4.8564,-4.8567,-4.857,0,0,0,0,0,0,0,0,0,0,0,0,0,-4.8594,-4.8572,-4.8658,-4.8613,-4.8609,-4.8663,-4.8663,-4.8663,-4.8571,-4.8567,-4.8563,-4.856,-4.8563,-4.8567,-4.857,-4.8667,0,0,-4.8581,-4.8583,0,0,0,0,0,0,0,0,-4.8593,-4.8598,-4.862,-4.8616,-4.8612,-4.8612,-4.8632,-4.8664,-4.8572,-4.8585,-4.8563,-4.8558,-4.8584,-4.8585,-4.8594,-4.8667,-4.8667,-4.8582,-4.8584,-4.8585,-4.8586,0,0,0,0,0,0,0,-4.8592,-4.8597,-4.866,-4.862,-4.8615,-4.8592,-4.8591,-4.8638,-4.8605,-4.8584,-4.8577,-4.8579,-4.8581,-4.8591,-4.8594,-4.8667,-4.8582,-4.8585,-4.8587,-4.8588,-4.8821,-4.8824,0,0,0,0,0,0,-4.8596,-4.8596,-4.866,-4.866,-4.8593,-4.8597,-4.8596,-4.8616,-4.8605,-4.8599,-4.8582,-4.8575,-4.8587,-4.859,-4.8593,-4.8706,-4.8585,-4.8589,-4.8591,-4.8817,-4.8821,-4.8826,0,0,0,0,0,0,-4.8595,-4.8603,-4.866,-4.8626,-4.8632,-4.8602,-4.8625,-4.8618,-4.8628,-4.8603,-4.8597,-4.8599,-4.8584,-4.8588,-4.865,-4.8705,-4.859,-4.8594,-4.8812,-4.8818,-4.8824,-4.8932,0,0,0,0,0,0,-4.8592,-4.8603,-4.8639,-4.8628,-4.8634,-4.8717,-4.8628,-4.862,-4.8634,-4.8625,-4.8617,-4.8612,-4.8581,-4.8645,-4.8653,-4.8707,-4.8596,-4.8807,-4.8815,-4.8822,-4.8923,-4.8941,-4.8956,0,0,0,0,0,-4.859,-4.8669,-4.8642,-4.865,-4.8679,-4.872,-4.8723,-4.8687,-4.8639,-4.8676,-4.866,-4.8612,-4.8698,-4.8652,-4.8661,-4.8717,-4.8803,-4.8812,-4.8821,-4.8916,-4.8937,-4.8955,0,0,0,0,0,0,-4.8687,-4.8667,-4.8636,-4.8714,-4.872,-4.8704,-4.8749,-4.871,-4.8729,-4.8719,-4.8672,-4.8671,-4.874,-4.8734,-4.8684,-4.881,-4.8742,-4.8753,-4.8811,-4.8831,-4.8847,-4.8846,-4.8599,0,0,0,0,0,-4.8717,-4.8753,-4.8733,-4.8804,-4.8808,-4.8779,-4.8795,-4.8766,-4.877,-4.8771,-4.876,-4.8765,-4.8792,-4.8811,-4.8836,-4.8922,-4.8919,-4.8965,-4.8982,-4.8995,-4.9005,-4.905,-4.9071,-4.8855,-4.8855,-4.8855,0,0,-4.8781,-4.8774,-4.8799,-4.8823,-4.8824,-4.8861,-4.8781,-4.8823,-4.885,-4.8777,-4.8835,-4.8827,-4.8829,-4.8904,-4.8936,-4.8901,-4.9064,-4.9007,-4.9018,-4.902,-4.9062,-4.9082,-4.91,-4.8862,-4.886,-4.8859,0,0,-4.8915,-4.8914,-4.8973,-4.8976,-4.8978,-4.8958,-4.8973,-4.8964,-4.8956,-4.9013,-4.8959,-4.8991,-4.9039,-4.9043,-4.9051,-4.9189,-4.9146,-4.9199,-4.9283,-4.9328,-4.9345,-4.936,-4.9409,-4.9427,-4.9209,-4.9209,-4.9209,0,-4.8993,-4.9047,-4.9008,-4.9054,-4.9067,-4.9004,-4.9063,-4.9067,-4.9078,-4.9088,-4.9049,-4.9109,-4.9106,-4.9181,-4.9215,-4.9224,-4.9239,-4.9198,-4.9346,-4.9361,-4.9374,-4.942,-4.9438,-4.9215,-4.9215,-4.9214,-4.9213,0,-4.9143,-4.9181,-4.9229,-4.9241,-4.9259,-4.9312,-4.928,-4.9303,-4.9274,-4.9258,-4.9317,-4.9312,-4.9334,-4.935,-4.9321,-4.9421,-4.9399,-4.9354,-4.9285,-4.9401,-4.9443,-4.9461,-4.9224,-4.9222,-4.922,-4.9219,0,0,-4.9336,-4.9328,-4.9346,-4.9351,-4.935,-4.9379,-4.9429,-4.9452,-4.9472,-4.9482,-4.9522,-4.9566,-4.9525,-4.9534,-4.9506,-4.9545,-4.9655,-4.9495,-4.9495,-4.9525,-4.9764,-4.9797,-4.9818,-4.9627,-4.963,-4.9632,-4.9763,0,-4.9466,-4.9551,-4.9518,-4.9606,-4.9641,-4.9583,-4.9627,-4.9631,-4.9618,-4.9646,-4.9631,-4.9662,-4.9606,-4.9611,-4.9648,-4.9634,-4.9702,-4.9624,-4.9663,-4.9665,-4.9663,-4.984,-4.9875,-4.9999,-4.978,-4.9783,-4.9785,0,-4.9628,-4.9646,-4.9738,-4.9732,-4.9745,-4.9785,-4.9803,-4.9831,-4.9834,-4.9822,-4.9834,-4.9797,-4.9846,-4.9778,-4.9844,-4.9792,-4.9806,-4.9802,-4.9806,-4.9807,-4.9731,-4.9845,-5.0037,-5.0056,-4.981,-4.9808,-4.9806,0,-4.976,-4.9806,-4.9867,-4.9874,-4.9868,-4.9897,-4.9896,-4.9897,-4.9913,-4.9929,-4.9938,-4.996,-4.9972,-4.9989,-4.9959,-4.9912,-5.0029,-4.9959,-5.002,-5.0021,-5.0046,-5.0044,-5.0242,-5.0058,-5.0057,-5.0057,-5.0057,0,-4.9907,-4.9966,-4.9926,-4.9964,-5.0027,-4.9989,-5.0053,-5.0046,-5.0047,-5.0081,-5.0032,-5.0066,-5.0024,-5.0054,-5.0031,-5.0089,-5.0095,-5.0086,-5.0079,-5.009,-5.0091,-5.0097,-5.0088,-5.0062,-5.0061,-5.006,-5.0059,0,-5.0064,-5.004,-5.0103,-5.0093,-5.0092,-5.0139,-5.0131,-5.0165,-5.0149,-5.0194,-5.0202,-5.0177,-5.0209,-5.0182,-5.0213,-5.0197,-5.0274,-5.0255,-5.0273,-5.0267,-5.033,-5.0324,-5.0538,-5.0563,-5.0364,-5.0366,-5.0367,0,-5.0159,-5.0203,-5.0199,-5.0219,-5.0221,-5.0254,-5.027,-5.0235,-5.0254,-5.0263,-5.0296,-5.0324,-5.0345,-5.0399,-5.0384,-5.0408,-5.0388,-5.0462,-5.0391,-5.0401,-5.0388,-5.0385,-5.0389,-5.0475,-5.0478,-5.048,-5.0481,0,-5.0331,-5.0317,-5.0343,-5.0366,-5.0387,-5.0402,-5.0414,-5.0433,-5.0397,-5.0421,-5.0454,-5.047,-5.0503,-5.0531,-5.055,-5.0548,-5.0509,-5.0504,-5.0519,-5.053,-5.0538,-5.0533,-5.0311,-5.0498,-5.0497,-5.0495,-5.0495,-5.0494,-5.0459,-5.0495,-5.0498,-5.0529,-5.0534,-5.0547,-5.0578,-5.0567,-5.0594,-5.0618,-5.0596,-5.0636,-5.0639,-5.066,-5.0664,-5.0694,-5.0663,-5.0686,-5.0691,-5.0697,-5.0706,-5.0535,-5.0698,-5.0697,-5.0697,-5.0696,-5.0696,0,-5.0627,-5.0627,-5.0655,-5.0674,-5.0698,-5.066,-5.0672,-5.0694,-5.073,-5.0737,-5.0759,-5.0797,-5.0825,-5.0813,-5.0837,-5.0864,-5.0846,-5.0871,-5.0868,-5.0868,-5.0732,-5.0716,-5.0885,-5.0885,-5.0885,-5.0885,-5.0885,-5.0885,-5.0717,-5.0777,-5.0764,-5.0825,-5.0824,-5.0863,-5.0873,-5.0884,-5.0889,-5.0935,-5.0958,-5.095,-5.0949,-5.0973,-5.0997,-5.0993,-5.1004,-5.1035,-5.1024,-5.0897,-5.0878,-5.086,-5.0845,-5.1038,-5.1038,-5.1158,-5.1159,-5.116]},{"header":{"parameterUnit":"m.s-1","parameterCategory":1,"la1":30.2991,"la2":30.254,"lo1":-89.0895,"lo2":-89.0444,"dy":0.0017,"dx":0.0017,"nx":28,"ny":28,"refTime":"2025-08-08T09:00:00:Z","depth":0,"parameterNumber":3,"parameterNumberName":"V-component_of_WINDS"},"data":[0,0,0,0,0,0,0,0,0,0,0,0,0,0,0,0,0,0,0,0,0,0,0,0,0,0,0,0,0,0,0,0,0,0,0,0,0,0,0,0,0,0,0,0,0,0,0,0,0,0,0,0,0,0,0,0,0,0,-0.2856,-0.2856,0,-0.2903,-0.2903,-0.2904,-0.2896,-0.2895,-0.2894,-0.2893,-0.2946,-0.2948,-0.2951,0,0,0,0,0,0,0,0,0,0,0,0,0,-0.2761,-0.2763,-0.2856,-0.2856,-0.2857,-0.2903,-0.2903,-0.2904,-0.2896,-0.2895,-0.2894,-0.2893,-0.2946,-0.2948,-0.2951,0,0,0,0,0,0,0,0,0,0,0,0,0,-0.2805,-0.2764,-0.2856,-0.2858,-0.2859,-0.2903,-0.2903,-0.2904,-0.2896,-0.2895,-0.2894,-0.2893,-0.2945,-0.2948,-0.2951,-0.2997,0,0,-0.2961,-0.2963,0,0,0,0,0,0,0,0,-0.2802,-0.2808,-0.2857,-0.2858,-0.2859,-0.2892,-0.289,-0.2935,-0.2897,-0.2882,-0.2893,-0.2892,-0.293,-0.2934,-0.2946,-0.2999,-0.3001,-0.2961,-0.2963,-0.2965,-0.2966,0,0,0,0,0,0,0,-0.2799,-0.2806,-0.2875,-0.2858,-0.2859,-0.2858,-0.2863,-0.2898,-0.2913,-0.2883,-0.2883,-0.2888,-0.293,-0.2943,-0.2947,-0.3002,-0.2961,-0.2964,-0.2966,-0.2968,-0.3093,-0.3095,0,0,0,0,0,0,-0.2795,-0.2804,-0.2873,-0.2876,-0.2827,-0.2861,-0.2866,-0.2883,-0.2912,-0.2915,-0.2889,-0.2888,-0.2938,-0.2943,-0.2949,-0.3003,-0.2965,-0.2968,-0.297,-0.3092,-0.3094,-0.3095,0,0,0,0,0,0,-0.2793,-0.2801,-0.2871,-0.284,-0.2849,-0.2864,-0.2883,-0.2884,-0.2897,-0.2917,-0.2919,-0.29,-0.2937,-0.2944,-0.2984,-0.3005,-0.2969,-0.2972,-0.309,-0.3092,-0.3094,-0.3112,0,0,0,0,0,0,-0.279,-0.2801,-0.2818,-0.284,-0.285,-0.2905,-0.2884,-0.2886,-0.2902,-0.2901,-0.2927,-0.293,-0.2936,-0.2979,-0.2987,-0.3009,-0.2975,-0.3089,-0.3091,-0.3094,-0.311,-0.3115,-0.3119,0,0,0,0,0,-0.2787,-0.2822,-0.2819,-0.2827,-0.2872,-0.2906,-0.2912,-0.2917,-0.2904,-0.2922,-0.2933,-0.2929,-0.3001,-0.2983,-0.2992,-0.3015,-0.3087,-0.309,-0.3093,-0.3108,-0.3114,-0.3119,0,0,0,0,0,0,-0.2804,-0.2825,-0.2822,-0.2865,-0.2883,-0.2905,-0.2927,-0.2924,-0.2948,-0.2945,-0.2952,-0.2958,-0.2998,-0.3011,-0.2991,-0.306,-0.3042,-0.3047,-0.305,-0.3056,-0.306,-0.3057,-0.2978,0,0,0,0,0,-0.2813,-0.2838,-0.2855,-0.2892,-0.2901,-0.2912,-0.2928,-0.293,-0.295,-0.2958,-0.2973,-0.2994,-0.3021,-0.3039,-0.3065,-0.3111,-0.3117,-0.3131,-0.3135,-0.3139,-0.3144,-0.3168,-0.3174,-0.3105,-0.3105,-0.3105,0,0,-0.2831,-0.2846,-0.2862,-0.2896,-0.291,-0.2937,-0.2919,-0.2949,-0.2968,-0.2963,-0.3001,-0.3013,-0.3036,-0.3079,-0.3099,-0.3091,-0.3163,-0.3143,-0.3145,-0.3148,-0.3171,-0.3178,-0.3184,-0.3107,-0.3107,-0.3106,0,0,-0.2879,-0.2892,-0.2923,-0.2937,-0.2959,-0.2966,-0.2973,-0.2994,-0.3001,-0.3038,-0.3034,-0.3059,-0.3105,-0.3122,-0.3136,-0.3187,-0.3183,-0.3195,-0.3219,-0.3242,-0.3247,-0.3252,-0.327,-0.3276,-0.3199,-0.3199,-0.3199,0,-0.29,-0.2938,-0.294,-0.2969,-0.2984,-0.2977,-0.3009,-0.3023,-0.3053,-0.3064,-0.3054,-0.311,-0.3126,-0.3172,-0.3184,-0.3196,-0.3205,-0.3193,-0.3246,-0.3251,-0.3255,-0.3272,-0.3279,-0.3201,-0.32,-0.32,-0.32,0,-0.2962,-0.2989,-0.3012,-0.3038,-0.3055,-0.3085,-0.3092,-0.311,-0.3109,-0.3117,-0.3155,-0.3173,-0.3202,-0.3213,-0.3214,-0.3258,-0.3252,-0.3244,-0.3227,-0.3263,-0.3279,-0.3286,-0.3202,-0.3202,-0.3201,-0.3201,0,0,-0.3024,-0.3048,-0.3057,-0.3068,-0.3089,-0.3111,-0.314,-0.3166,-0.3181,-0.3201,-0.3226,-0.3264,-0.3256,-0.3272,-0.3275,-0.3295,-0.3333,-0.3284,-0.3285,-0.3292,-0.3382,-0.3388,-0.3396,-0.333,-0.3331,-0.3332,-0.338,0,-0.3073,-0.3123,-0.3125,-0.3172,-0.3196,-0.3189,-0.3215,-0.3231,-0.3239,-0.3261,-0.327,-0.3296,-0.3284,-0.3293,-0.3313,-0.3324,-0.3351,-0.3321,-0.3354,-0.3355,-0.3349,-0.3404,-0.3411,-0.3455,-0.3386,-0.3387,-0.3388,0,-0.3138,-0.3157,-0.3205,-0.3221,-0.3232,-0.3254,-0.3277,-0.3299,-0.3317,-0.3321,-0.3338,-0.3337,-0.3367,-0.3348,-0.339,-0.3369,-0.3383,-0.339,-0.3392,-0.3396,-0.3374,-0.341,-0.347,-0.3476,-0.3398,-0.3397,-0.3396,0,-0.3177,-0.3215,-0.3248,-0.3258,-0.3278,-0.3294,-0.3304,-0.332,-0.3335,-0.3356,-0.3365,-0.339,-0.3403,-0.3422,-0.3428,-0.3414,-0.347,-0.3451,-0.3475,-0.3474,-0.3488,-0.3487,-0.3551,-0.3496,-0.3496,-0.3496,-0.3496,0,-0.3232,-0.3262,-0.3266,-0.3287,-0.332,-0.3321,-0.3354,-0.3362,-0.3377,-0.3399,-0.3395,-0.3417,-0.3423,-0.3445,-0.345,-0.3484,-0.349,-0.3495,-0.3496,-0.3495,-0.3495,-0.3505,-0.3502,-0.3497,-0.3497,-0.3497,-0.3496,0,-0.3282,-0.3286,-0.3322,-0.3337,-0.3341,-0.3365,-0.3378,-0.3398,-0.3404,-0.3432,-0.3439,-0.3449,-0.3475,-0.3482,-0.3514,-0.3517,-0.3557,-0.3555,-0.355,-0.355,-0.3573,-0.3571,-0.3646,-0.3656,-0.3594,-0.3595,-0.3595,0,-0.3317,-0.3339,-0.3356,-0.3369,-0.3379,-0.3401,-0.3415,-0.3417,-0.3433,-0.3453,-0.3471,-0.3496,-0.3516,-0.3559,-0.3569,-0.3593,-0.3592,-0.3617,-0.3596,-0.3594,-0.3592,-0.3591,-0.3593,-0.3621,-0.3622,-0.3622,-0.3623,0,-0.3379,-0.3379,-0.3399,-0.3419,-0.3435,-0.3452,-0.3468,-0.3479,-0.3483,-0.3501,-0.3526,-0.3542,-0.3573,-0.3598,-0.3621,-0.3632,-0.3629,-0.3629,-0.3636,-0.3636,-0.3632,-0.3634,-0.3561,-0.3628,-0.3627,-0.3627,-0.3627,-0.3626,-0.3422,-0.3441,-0.3454,-0.3476,-0.3488,-0.3502,-0.3521,-0.3528,-0.3548,-0.3572,-0.3572,-0.36,-0.3616,-0.3648,-0.3659,-0.3681,-0.3674,-0.3684,-0.3686,-0.3689,-0.369,-0.3627,-0.3686,-0.3686,-0.3686,-0.3686,-0.3685,0,-0.3483,-0.3491,-0.351,-0.3531,-0.3548,-0.354,-0.3557,-0.3572,-0.3596,-0.3611,-0.363,-0.3658,-0.3682,-0.3693,-0.3717,-0.3732,-0.3731,-0.3739,-0.3738,-0.374,-0.3696,-0.3688,-0.3739,-0.3739,-0.3739,-0.3739,-0.3739,-0.3739,-0.3517,-0.3547,-0.3549,-0.3585,-0.3593,-0.3618,-0.3628,-0.3641,-0.3653,-0.3684,-0.3703,-0.3709,-0.3723,-0.3747,-0.3768,-0.3771,-0.378,-0.3788,-0.379,-0.3749,-0.3743,-0.3738,-0.3731,-0.379,-0.379,-0.3833,-0.3833,-0.3833]}]]